TIANWANG 1B (TW-1B)
1 40927U 15051C   19342.44143615  .00010158  00000-0  13860-3 0  9997
2 40927  97.1179  27.5769 0009224  99.1880 318.5376 15.57635546236872
TIANWANG 1A (TW-1A)
1 40928U 15051D   19342.40308052  .00002060  00000-0  50797-4 0  9996
2 40928  97.1303   9.8159 0011350 156.3708 329.3693 15.41631559235779
LAPAN A2
1 40931U 15052B   19342.12389082  .00000370  00000-0 -37558-4 0  9995
2 40931   6.0005 266.9022 0012502  74.0874 286.0779 14.76619897226789
LQSAT
1 40958U 15057A   19341.95922773 +.00000003 +00000-0 +80029-5 0  9993
2 40958 097.8803 046.3242 0019197 051.4610 308.8316 14.73099337224179
CHUBUSAT 2
1 41338U 16012B   19341.82184236  .00000240  00000-0  11895-4 0  9995
2 41338  31.0023 130.8120 0013814   7.5161 352.5680 15.00216949208783
CHUBUSAT 3
1 41339U 16012C   19342.43673075  .00000226  00000-0  10773-4 0  9996
2 41339  31.0103 124.7772 0013696  20.4456 339.6731 15.00387592208873
OUFTI-1
1 41458U 16025C   19342.13900626  .00001586  00000-0  83133-4 0  9994
2 41458  98.1009  77.7699 0166284 136.8311 224.6091 15.06288253198525
E-STAR-2
1 41459U 16025D   19342.33091359  .00001615  00000-0  85072-4 0  9998
2 41459  98.1008  77.5288 0167869 137.8821 223.5448 15.05897476198520
AAUSAT 4
1 41460U 16025E   19342.48104222  .00002861  00000-0  14392-3 0  9990
2 41460  98.0965  79.3885 0157037 128.4408 233.1016 15.07969124198709
NUSAT 1
1 41557U 16033B   19342.54232561  .00000937  00000-0  37404-4 0  9993
2 41557  97.4130  69.0206 0014910  51.7546 308.5033 15.27583858196475
BEESAT 4
1 41619U 16040W   19341.75210627  .00001066  00000-0  47486-4 0  9996
2 41619  97.3476  40.6031 0012486 133.1658 227.0625 15.23520259180053
PRATHAM
1 41783U 16059A   19341.74487287  .00000026  00000-0  14191-4 0  9997
2 41783  98.0463  37.3255 0033170 200.7821 159.2034 14.63024782170700
ALSAT 1N
1 41789U 16059G   19342.40649035  .00000055  00000-0  19384-4 0  9999
2 41789  98.0483  40.3483 0028199 186.9003 173.1818 14.64281524170926
NAYIF 1
1 42017U 17008BX  19342.18643704  .00001193  00000-0  49252-4 0  9992
2 42017  97.3851  47.3573 0004609 284.6232  75.4495 15.25958113156224
MAX VALIER SAT
1 42778U 17036P   19341.89725250 +.00000705 +00000-0 +33564-4 0  9998
2 42778 097.3335 035.5813 0011694 347.2307 012.8632 15.22288378136437
